Hill City, KS

11:53 AM CDT on March 28, 2017 (GMT -0500)
Hill City Municipal

Weather History for KHLC - February, 2013

Change the Weather History Date:

Wednesday, February 6, 2013

  Actual Average Record
Temperature  
Mean Temperature 47 °F 31 °F  
Max Temperature 64 °F 44 °F 79 °F (2009)
Min Temperature 29 °F 18 °F -17 °F (1985)
Degree Days  
Heating Degree Days 18    
Moisture  
Dew Point 33 °F    
Average Humidity 69    
Maximum Humidity 89    
Minimum Humidity 35    
Precipitation  
Precipitation 0.00 in 0.02 in 0.65 in (2005)
Month to date precipitation 0.00 0.11  
Year to date precipitation 0.09 0.56  
Sea Level Pressure  
Sea Level Pressure 29.88 in    
Wind  
Wind Speed 7 mph (South)    
Max Wind Speed 17 mph    
Max Gust Speed 24 mph    
Visibility 10 miles    
Events      
T = Trace of Precipitation, MM = Missing Value Source: NWS Daily Summary

Daily Weather History Graph

Daily Weather History Graph

Search for Another Location

Airport or City:

Trip Planner

Search our weather history database for the weather conditions in past years. The results will help you decide how hot, cold, wet, or windy it might be!

Date:

Astronomy

Feb. 06, 2013 Rise Set
Actual Time 7:41 AM CST 6:06 PM CST
Civil Twilight 7:13 AM CST 6:34 PM CST
Nautical Twilight 6:41 AM CST 7:05 PM CST
Astronomical Twilight 6:10 AM CST 7:37 PM CST
Moon 4:26 AM CST (2/6) 2:26 PM CST (2/6)
Length of Visible Light 11h 20m
Length of Day
10h 24m
Waning Crescent, 17% of the Moon is Illuminated
Feb 6
Waning Crescent
Feb 10
New
Feb 17
First Quarter
Feb 25
Full
Mar 4
Last Quarter

Hourly Weather History & Observations

Time (CST) Temp. Windchill Dew Point Humidity Pressure Visibility Wind Dir Wind Speed Gust Speed Precip Events Conditions
12:53 AM 37.0 °F 34.5 °F 28.9 °F 73% 30.00 in 10.0 mi SE 3.5 mph - N/A   Clear
1:53 AM 35.1 °F 27.9 °F 28.0 °F 76% 29.98 in 10.0 mi SSE 9.2 mph - N/A   Clear
2:53 AM 35.1 °F 30.1 °F 28.0 °F 76% 29.96 in 10.0 mi South 5.8 mph - N/A   Clear
3:53 AM 34.0 °F 28.8 °F 27.0 °F 75% 29.94 in 10.0 mi South 5.8 mph - N/A   Clear
4:53 AM 30.9 °F 26.2 °F 25.0 °F 79% 29.94 in 10.0 mi SSW 4.6 mph - N/A   Clear
5:53 AM 30.0 °F 24.1 °F 24.1 °F 79% 29.94 in 10.0 mi South 5.8 mph - N/A   Clear
6:53 AM 30.0 °F 25.2 °F 24.1 °F 79% 29.94 in 10.0 mi SSE 4.6 mph - N/A   Clear
7:53 AM 30.0 °F 25.2 °F 24.1 °F 79% 29.94 in 10.0 mi South 4.6 mph - N/A   Clear
8:53 AM 36.0 °F 31.1 °F 27.0 °F 70% 29.92 in 10.0 mi SSW 5.8 mph - N/A   Clear
9:53 AM 45.0 °F 38.5 °F 32.0 °F 60% 29.90 in 10.0 mi South 13.8 mph - N/A   Clear
10:53 AM 48.9 °F - 36.0 °F 61% 29.89 in 10.0 mi South 11.5 mph 20.7 mph N/A   Clear
11:53 AM 45.0 °F 37.6 °F 37.9 °F 76% 29.89 in 10.0 mi South 17.3 mph 24.2 mph N/A   Partly Cloudy
12:07 PM 46.4 °F 39.5 °F 39.2 °F 76% 29.85 in 10.0 mi South 17.3 mph 24.2 mph N/A   Mostly Cloudy
12:53 PM 50.0 °F - 39.0 °F 66% 29.84 in 10.0 mi SSW 11.5 mph 21.9 mph N/A   Scattered Clouds
1:53 PM 57.0 °F - 39.9 °F 53% 29.79 in 10.0 mi SSW 12.7 mph 19.6 mph N/A   Clear
2:53 PM 62.1 °F - 37.9 °F 41% 29.75 in 10.0 mi SSW 13.8 mph 24.2 mph N/A   Clear
3:53 PM 63.0 °F - 37.0 °F 38% 29.74 in 10.0 mi SSW 11.5 mph - N/A   Clear
4:53 PM 64.0 °F - 36.0 °F 35% 29.74 in 10.0 mi South 9.2 mph - N/A   Clear
5:53 PM 57.9 °F - 39.0 °F 49% 29.78 in 10.0 mi South 4.6 mph - N/A   Clear
6:53 PM 46.9 °F - 37.0 °F 68% 29.81 in 10.0 mi NNW 3.5 mph - N/A   Clear
7:53 PM 45.0 °F 40.6 °F 37.0 °F 74% 29.83 in 10.0 mi North 8.1 mph - N/A   Clear
8:53 PM 41.0 °F 38.0 °F 36.0 °F 82% 29.86 in 10.0 mi NNE 4.6 mph - N/A   Clear
9:53 PM 37.9 °F - 34.0 °F 86% 29.86 in 10.0 mi Calm Calm - N/A   Clear
10:53 PM 37.0 °F 33.3 °F 34.0 °F 89% 29.89 in 10.0 mi WNW 4.6 mph - N/A   Clear
11:53 PM 41.0 °F 35.8 °F 37.0 °F 86% 29.90 in 9.0 mi NNW 8.1 mph - N/A   Clear